EW0802 Weather Reports


Display with metric or nautical units.
time (UTC)temp
F
wind
direction
speed
MPH
gust
MPH
rain 1hr
in
rain 24hr
in
rain mn
in
humidity
%
barometer
mb
20260504000002 77 134 3.0 9.0 0.00 0.00 0.00 36 1014.4
20260503234501 78 172 3.0 9.0 0.00 0.00 0.00 36 1014.5
20260503233059 78 138 3.0 10.0 0.00 0.00 0.00 36 1014.7
20260503231559 79 143 2.0 9.0 0.00 0.00 0.00 37 1014.7
20260503230100 80 116 1.0 7.0 0.00 0.00 0.00 35 1014.8
20260503224556 80 254 1.0 8.0 0.00 0.00 0.00 34 1014.8
20260503223056 80 199 2.0 8.0 0.00 0.00 0.00 33 1014.9
20260503221554 80 126 2.0 7.0 0.00 0.00 0.00 33 1015.2
20260503220054 80 161 2.0 12.0 0.00 0.00 0.00 32 1015.4
20260503214551 80 58 1.0 12.0 0.00 0.00 0.00 34 1015.5
20260503213056 81 186 2.0 9.0 0.00 0.00 0.00 33 1015.8
20260503211547 82 302 1.0 6.0 0.00 0.00 0.00 34 1016.0
20260503210047 82 249 1.0 8.0 0.00 0.00 0.00 32 1016.2
20260503204542 82 167 0.0 6.0 0.00 0.00 0.00 34 1016.5
20260503203040 81 168 2.0 9.0 0.00 0.00 0.00 33 1017.0
20260503201541 82 159 2.0 7.0 0.00 0.00 0.00 34 1017.0
20260503200042 82 196 1.0 7.0 0.00 0.00 0.00 32 1017.2
20260503194534 82 221 1.0 5.0 0.00 0.00 0.00 33 1017.5
20260503193036 82 165 1.0 5.0 0.00 0.00 0.00 36 1017.7
20260503191531 82 228 1.0 5.0 0.00 0.00 0.00 37 1018.0
20260503190030 81 342 1.0 8.0 0.00 0.00 0.00 34 1018.3
20260503184526 81 157 2.0 9.0 0.00 0.00 0.00 36 1018.4
20260503183034 80 254 1.0 8.0 0.00 0.00 0.00 38 1018.5
20260503181520 80 251 1.0 5.0 0.00 0.00 0.00 38 1019.0
20260503180022 80 169 2.0 7.0 0.00 0.00 0.00 39 1019.2
20260503174516 79 290 1.0 5.0 0.00 0.00 0.00 41 1019.6
20260503173014 79 265 0.0 8.0 0.00 0.00 0.00 45 1019.8
20260503171513 79 234 1.0 5.0 0.00 0.00 0.00 45 1020.0
20260503081549 60 193 0.0 3.0 0.00 0.00 0.00 67 1018.9
20260503071528 61 150 0.0 1.0 0.00 0.00 0.00 63 1019.3
20260503054521 63 198 1.0 4.0 0.00 0.00 0.00 58 1019.3
20260503053026 62 179 0.0 3.0 0.00 0.00 0.00 61 1019.3
20260503051517 63 163 0.0 2.0 0.00 0.00 0.00 58 1019.2
20260503050026 64 177 0.0 5.0 0.00 0.00 0.00 56 1019.1
20260503044511 65 171 0.0 3.0 0.00 0.00 0.00 54 1019.0
20260503043014 65 176 0.0 3.0 0.00 0.00 0.00 54 1019.0
20260503041510 65 149 0.0 3.0 0.00 0.00 0.00 54 1019.1
20260503040009 65 132 0.0 3.0 0.00 0.00 0.00 54 1019.1
20260503034509 64 164 0.0 2.0 0.00 0.00 0.00 56 1019.1
20260503033009 63 254 0.0 0.0 0.00 0.00 0.00 59 1019.1
20260503031508 63 254 0.0 0.0 0.00 0.00 0.00 58 1019.0
20260503030007 63 254 0.0 0.0 0.00 0.00 0.00 58 1018.9
20260503024509 64 254 0.0 0.0 0.00 0.00 0.00 56 1018.7
20260503023006 64 254 0.0 0.0 0.00 0.00 0.00 56 1018.7
20260503021509 64 254 0.0 0.0 0.00 0.00 0.00 58 1018.5
20260503020006 64 254 0.0 0.0 0.00 0.00 0.00 58 1018.3
20260503014505 65 254 0.0 0.0 0.00 0.00 0.00 56 1018.3
20260503013014 66 254 0.0 0.0 0.00 0.00 0.00 53 1018.2
20260503011504 67 254 0.0 0.0 0.00 0.00 0.00 52 1018.2
20260503010003 69 254 0.0 0.0 0.00 0.00 0.00 49 1018.1
20260503004502 71 254 0.0 0.0 0.00 0.00 0.00 43 1018.0
20260503003002 72 254 0.0 0.0 0.00 0.00 0.00 42 1018.0
20260503001604 73 247 0.0 2.0 0.00 0.00 0.00 38 1017.9